sat.trackr.live / text

‹ back to catalog

STARLINK-34163

NORAD 64008 · 2025-101Q

PAYLOAD ACTIVE UNKNOWN

§ Identity

Operator
Country
US
Launch date
2025-05-14
Launch site
AFETR
Launch vehicle
Mass (kg)
RCS (m²)

Purposes: comms

External: N2YO · Heavens-Above · Gunter

§ Orbital elements

Epoch: 2026-05-24T19:14:30.285024Z

Period
94.27 min
Inclination
43.0006°
Eccentricity
0.0001567
Mean motion
15.27584911 rev/d
Perigee alt
482.0 km
Apogee alt
484.1 km
Semi-major
6,861.2 km
B*
7.7341e-4
RAAN
288.2919°
Arg perigee
274.0411°
Mean anomaly
86.0262°
Rev number
5,869

§ Raw data

STARLINK-341631 64008U 25101Q   26144.80173941  .00021085  00000+0  77341-3 0  99972 64008  43.0006 288.2919 0001567 274.0411  86.0262 15.27584911 58695

JSON: /api/v1/satellites/64008 · /tle

For live sub-satellite position, see the globe view (requires WebGL).

§ Visibility from observer

Set your observer location to see the next 7 days of passes ≥ 10°. The values pass through the URL so the page stays shareable.

No JS? Fill the form by hand. The geolocation button needs JavaScript.